User: anonymous   Login
Location: Delettes
(50.6178°N, 2.2123°E)
Time: 06:44:26
(UTC+00:00)
Language:

Cosmos 1933 Rocket - Orbit

View from above orbital plane
View from above orbital plane
View from above satellite
View from above satellite

Ground track
Ground track

The orbit data is extracted from the following two-line orbital elements,

1 18959U 88020B   20156.88573007 +.00000070 +00000-0 +55814-5 0  9997
2 18959 082.5365 338.1147 0017379 158.1044 202.0918 14.83440642720153
Epoch (UTC): 04 June 2020 21:15:27
Eccentricity: 0.0017379
inclination: 82.5365°
perigee height: 606 km
apogee height: 630 km
right ascension of ascending node: 338.1147°
argument of perigee: 158.1044°
revolutions per day: 14.83440642
mean anomaly at epoch: 202.0918°
orbit number at epoch: 72015

The dashed part of the orbit path shows where the satellite is in the earth's shadow,  

DLR